User: anonymous   Login
Location: Unspecified
(0.0000°N, 0.0000°E)
Time: 12:43:10
(UTC+00:00)
Language:

SCD-2 - Orbit

View from above orbital plane
View from above orbital plane
View from above satellite
View from above satellite

Ground track
Ground track

The orbit data is extracted from the following two-line orbital elements,

1 25504U 98060A   18201.21099726  .00000214  00000-0  93405-5 0  9990
2 25504  24.9944 218.2823 0016975 244.9796 187.6694 14.44045507 42534
Epoch (UTC): 20 July 2018 05:03:50
Eccentricity: 0.0016975
inclination: 24.9944°
perigee height: 733 km
apogee height: 757 km
right ascension of ascending node: 218.2823°
argument of perigee: 244.9796°
revolutions per day: 14.44045507
mean anomaly at epoch: 187.6694°
orbit number at epoch: 4253

The dashed part of the orbit path shows where the satellite is in the earth's shadow,  

DLR